Hauptseite
METAR-TAF:

METAR-TAF

Flughäfen :

Fliegerhorst Faßberg

Faßberg, Deutschland

Breite: 52-55N, Länge: 010-11E, Höhe: 75 m

Beobachtung

Neuester Wetterbericht von vor 1 Stunde und 8 Minuten, um 03:20 UTC
Wind 10 kt aus West
Temperatur 3°C
Luftfeuchtigkeit 87%
Luftdruck 1013 hPa
Sichtweite: 7000 m
Durchbrochene Bewölkung in der Höhe von 800 ft
Durchbrochene Bewölkung in der Höhe von 1500 ft
Regen, Schnee

METAR: ETHS 250320Z 28010KT 7000 RASN BKN008 BKN015 03/01 Q1013 GRN

Zeit: 05:28 (04:28 UTC)


TAF: fehlend

Wetterbeobachtungen und Prognosen von mehr als 4000 Flughäfen (METAR und TAF Bericht).

Die verfügbaren Stationen werden durch gelbe und rote Markierungen auf der Karte dargestellt.

Führen Sie die Maus auf sie, um den Namen der Station zu sehen.

Darauf klicken, um die Beobachtung von Wetterbeobachtungen und Prognosen zu sehen.

Um die Karte zu ändern : klicken Sie auf den grünen Tasten mit einem schwarzen Kreuz Zum Vergrößern, auf den grünen Button mit einem Gedankenstrich zu verkleinern, oder auf die grünen Pfeile für benachbarte Karten.


METAR-TAF: